EN

Hourly Weather Brzozka

Today, 16 May, Sunday

Time Temperature Precipitation Wind Pressure Humidity
00:00 +10°C° 0.3 mm 2 mps 744 mmHg 94%
01:00 +10°C° 0.3 mm 2 mps 744 mmHg 95%
02:00 +9°C° 0 mm 2 mps 744 mmHg 95%
03:00 +9°C° 0 mm 2 mps 744 mmHg 94%
04:00 +9°C° 0 mm 2 mps 744 mmHg 94%
05:00 +10°C° 0 mm 2 mps 744 mmHg 91%
06:00 +11°C° 0 mm 3 mps 745 mmHg 87%
07:00 +12°C° 0 mm 3 mps 745 mmHg 84%
08:00 +13°C° 0.1 mm 3 mps 745 mmHg 78%
09:00 +14°C° 0.1 mm 3 mps 745 mmHg 72%
10:00 +16°C° 0.1 mm 3 mps 745 mmHg 66%
11:00 +15°C° 0.2 mm 4 mps 745 mmHg 65%
12:00 +17°C° 0.2 mm 4 mps 745 mmHg 64%
13:00 +17°C° 0.2 mm 4 mps 745 mmHg 63%
14:00 +17°C° 0.1 mm 4 mps 745 mmHg 61%
15:00 +18°C° 0.1 mm 3 mps 744 mmHg 58%
16:00 +18°C° 0.1 mm 3 mps 744 mmHg 56%
17:00 +17°C° 0 mm 2 mps 744 mmHg 62%
18:00 +15°C° 0 mm 2 mps 744 mmHg 69%
19:00 +14°C° 0 mm 1 mps 744 mmHg 75%
20:00 +13°C° 0 mm 2 mps 744 mmHg 79%
21:00 +12°C° 0 mm 2 mps 744 mmHg 83%
22:00 +10°C° 0 mm 2 mps 744 mmHg 87%
23:00 +9°C° 0 mm 2 mps 744 mmHg 88%

Tomorrow, 17 May, Monday

Time Temperature Precipitation Wind Pressure Humidity
00:00 +9°C° 0 mm 2 mps 744 mmHg 89%
01:00 +9°C° 0 mm 2 mps 744 mmHg 90%
02:00 +8°C° 0 mm 2 mps 744 mmHg 90%
03:00 +8°C° 0 mm 2 mps 744 mmHg 89%
04:00 +8°C° 0 mm 2 mps 744 mmHg 89%
05:00 +10°C° 0.1 mm 2 mps 744 mmHg 87%
06:00 +11°C° 0.1 mm 3 mps 744 mmHg 84%
07:00 +12°C° 0.1 mm 3 mps 744 mmHg 81%
08:00 +12°C° 0.6 mm 3 mps 744 mmHg 82%
09:00 +13°C° 0.6 mm 2 mps 745 mmHg 83%
10:00 +13°C° 0.6 mm 2 mps 745 mmHg 84%
11:00 +13°C° 0.3 mm 2 mps 745 mmHg 82%
12:00 +14°C° 0.3 mm 2 mps 745 mmHg 81%
13:00 +13°C° 0.3 mm 3 mps 745 mmHg 79%
14:00 +14°C° 0.4 mm 2 mps 745 mmHg 81%
15:00 +14°C° 0.4 mm 2 mps 745 mmHg 83%
16:00 +14°C° 0.4 mm 2 mps 745 mmHg 85%
17:00 +13°C° 0.5 mm 2 mps 745 mmHg 86%
18:00 +12°C° 0.5 mm 3 mps 745 mmHg 87%
19:00 +11°C° 0.5 mm 3 mps 745 mmHg 87%
20:00 +11°C° 0.3 mm 4 mps 745 mmHg 89%
21:00 +11°C° 0.3 mm 4 mps 745 mmHg 91%
22:00 +10°C° 0.3 mm 5 mps 745 mmHg 93%
23:00 +9°C° 0.1 mm 5 mps 746 mmHg 93%

Day after tomorrow, 18 May, Tuesday

Time Temperature Precipitation Wind Pressure Humidity
00:00 +9°C° 0.1 mm 5 mps 746 mmHg 92%
01:00 +8°C° 0.1 mm 6 mps 746 mmHg 92%
02:00 +8°C° 0 mm 6 mps 746 mmHg 92%
03:00 +7°C° 0 mm 5 mps 746 mmHg 93%
04:00 +7°C° 0 mm 5 mps 746 mmHg 94%
05:00 +8°C° 0 mm 5 mps 747 mmHg 92%
06:00 +9°C° 0 mm 6 mps 747 mmHg 90%
07:00 +9°C° 0 mm 6 mps 747 mmHg 88%
08:00 +10°C° 0.1 mm 6 mps 747 mmHg 84%
09:00 +11°C° 0.1 mm 7 mps 747 mmHg 80%
10:00 +12°C° 0.1 mm 7 mps 747 mmHg 75%
11:00 +14°C° 0.2 mm 7 mps 747 mmHg 72%
12:00 +14°C° 0.2 mm 7 mps 747 mmHg 68%
13:00 +15°C° 0.2 mm 7 mps 747 mmHg 65%
14:00 +15°C° 0.2 mm 6 mps 747 mmHg 67%
15:00 +15°C° 0.2 mm 6 mps 748 mmHg 69%
16:00 +15°C° 0.2 mm 6 mps 748 mmHg 70%
17:00 +14°C° 0.1 mm 6 mps 748 mmHg 75%
18:00 +13°C° 0.1 mm 5 mps 748 mmHg 80%
19:00 +12°C° 0.1 mm 4 mps 748 mmHg 84%
20:00 +11°C° 0 mm 4 mps 748 mmHg 88%
21:00 +10°C° 0 mm 4 mps 749 mmHg 91%
22:00 +9°C° 0 mm 3 mps 749 mmHg 95%
23:00 +7°C° 0.1 mm 4 mps 749 mmHg 95%

19 May, Wednesday

Time Temperature Precipitation Wind Pressure Humidity
00:00 +7°C° 0.1 mm 4 mps 750 mmHg 95%
01:00 +7°C° 0.1 mm 4 mps 750 mmHg 95%
02:00 +7°C° 0 mm 4 mps 750 mmHg 95%
03:00 +6°C° 0 mm 4 mps 750 mmHg 96%
04:00 +6°C° 0 mm 4 mps 750 mmHg 96%
05:00 +7°C° 0 mm 4 mps 750 mmHg 94%
06:00 +8°C° 0 mm 4 mps 751 mmHg 92%
07:00 +9°C° 0 mm 5 mps 751 mmHg 89%
08:00 +9°C° 0.1 mm 5 mps 751 mmHg 89%
09:00 +9°C° 0.1 mm 5 mps 752 mmHg 89%
10:00 +9°C° 0.1 mm 5 mps 752 mmHg 89%
11:00 +10°C° 0.4 mm 5 mps 752 mmHg 88%
12:00 +10°C° 0.4 mm 5 mps 752 mmHg 87%
13:00 +10°C° 0.4 mm 5 mps 752 mmHg 86%
14:00 +12°C° 0.2 mm 5 mps 752 mmHg 80%
15:00 +13°C° 0.2 mm 4 mps 752 mmHg 74%
16:00 +14°C° 0.2 mm 3 mps 752 mmHg 67%
17:00 +13°C° 0.1 mm 3 mps 752 mmHg 72%
18:00 +12°C° 0.1 mm 3 mps 752 mmHg 76%
19:00 +11°C° 0.1 mm 3 mps 752 mmHg 80%
20:00 +10°C° 0 mm 3 mps 752 mmHg 84%
21:00 +9°C° 0 mm 3 mps 752 mmHg 87%
22:00 +8°C° 0 mm 3 mps 753 mmHg 90%
23:00 +7°C° 0 mm 3 mps 753 mmHg 92%

20 May, Thursday

Time Temperature Precipitation Wind Pressure Humidity
00:00 +7°C° 0 mm 3 mps 753 mmHg 93%
01:00 +5°C° 0 mm 3 mps 753 mmHg 95%
02:00 +5°C° 0 mm 3 mps 753 mmHg 95%
03:00 +5°C° 0 mm 3 mps 753 mmHg 95%
04:00 +4°C° 0 mm 3 mps 753 mmHg 96%
05:00 +7°C° 0 mm 3 mps 753 mmHg 92%
06:00 +7°C° 0 mm 4 mps 753 mmHg 88%
07:00 +10°C° 0 mm 4 mps 753 mmHg 84%
08:00 +11°C° 0.1 mm 4 mps 753 mmHg 77%
09:00 +12°C° 0.1 mm 5 mps 753 mmHg 70%
10:00 +13°C° 0.1 mm 5 mps 754 mmHg 63%
11:00 +14°C° 0 mm 5 mps 754 mmHg 58%
12:00 +15°C° 0 mm 5 mps 754 mmHg 53%
13:00 +16°C° 0 mm 6 mps 754 mmHg 47%
14:00 +15°C° 0 mm 6 mps 754 mmHg 51%
15:00 +15°C° 0 mm 6 mps 754 mmHg 55%
16:00 +14°C° 0 mm 6 mps 754 mmHg 59%
17:00 +13°C° 0 mm 5 mps 754 mmHg 65%
18:00 +12°C° 0 mm 4 mps 754 mmHg 71%
19:00 +11°C° 0 mm 3 mps 755 mmHg 77%
20:00 +10°C° 0 mm 2 mps 755 mmHg 80%
21:00 +9°C° 0 mm 2 mps 755 mmHg 82%
22:00 +8°C° 0 mm 2 mps 755 mmHg 85%
23:00 +7°C° 0 mm 2 mps 755 mmHg 86%

21 May, Friday

Time Temperature Precipitation Wind Pressure Humidity
00:00 +7°C° 0 mm 2 mps 755 mmHg 87%
01:00 +7°C° 0 mm 3 mps 755 mmHg 88%
02:00 +5°C° 0 mm 3 mps 755 mmHg 88%
03:00 +5°C° 0 mm 3 mps 755 mmHg 88%
04:00 +5°C° 0 mm 3 mps 754 mmHg 88%
05:00 +7°C° 0 mm 3 mps 754 mmHg 85%
06:00 +9°C° 0 mm 3 mps 754 mmHg 82%
07:00 +11°C° 0 mm 3 mps 754 mmHg 78%
08:00 +12°C° 0 mm 3 mps 753 mmHg 72%
09:00 +14°C° 0 mm 3 mps 753 mmHg 65%
10:00 +16°C° 0 mm 3 mps 753 mmHg 59%
11:00 +17°C° 0 mm 3 mps 752 mmHg 58%
12:00 +17°C° 0 mm 3 mps 751 mmHg 56%
13:00 +18°C° 0 mm 2 mps 751 mmHg 55%
14:00 +18°C° 0.2 mm 3 mps 750 mmHg 58%
15:00 +18°C° 0.2 mm 3 mps 749 mmHg 61%
16:00 +17°C° 0.2 mm 3 mps 749 mmHg 64%
17:00 +17°C° 0.1 mm 3 mps 748 mmHg 67%
18:00 +16°C° 0.1 mm 3 mps 748 mmHg 71%
19:00 +14°C° 0.1 mm 3 mps 747 mmHg 75%
20:00 +13°C° 0 mm 3 mps 747 mmHg 75%
21:00 +13°C° 0 mm 4 mps 746 mmHg 76%
22:00 +12°C° 0 mm 4 mps 746 mmHg 77%
23:00 +12°C° 0 mm 4 mps 746 mmHg 77%
Show more

We Need Your Consent

Meteoprog and our Service Providers may store and access personal data such as cookies, device identifiers or other similar technologies on your device and process such data to personalise content and ads, as well as provide social media features and to analyse the traffic.

  • Store and/or access information on your device

    Cookies, device identifiers or other information can be stored or accessed on your device for the purposes indicated above.

  • Personalised ads and content, ad and content measurement, audience insights, and products development

    Ads and content can be personalised based on a profile. More data can be added to better personalise ads and content. Ad and content performance can be measured. Insights about the audience who saw the ads and content can be derived. Such data can be used to develop or improve user’s experience, systems and software.

By clicking ‘I Agree’ you will allow the use of indicated cookies, device identifiers, web beacons or other similar technologies. Your settings can be changed in the browser on your device.

For certain purposes, legitimate interests may be relied on, rather than consent. You can read more about this in our Privacy and Cookie Policy.